Weather observations for the past three days for
Waco, Waco Regional Airport
| Date | Time (cdt) | Wind (mph) | Vis. (mi.) | Weather | Sky Cond. | Temperature (ºF) | Relative Humidity | Wind Chill (°F) | Heat Index (°F) | Pressure | Precipitation (in) | ||||||
|---|---|---|---|---|---|---|---|---|---|---|---|---|---|---|---|---|---|
| Air | Dwpt | 6 hour | altimeter (in) | sea level (mb) | 1 hr | 3 hr | 6 hr | ||||||||||
| Max. | Min. | ||||||||||||||||
| 04 | 18:51 | S 18 G 31 | 10.00 | A Few Clouds | FEW040 | 80.1 | 63 | 82 | 78.1 | 56% | 81 | 29.75 | 1006.7 | ||||
| 04 | 17:51 | S 18 G 26 | 10.00 | Fair | CLR | 80.1 | 63 | 56% | 81 | 29.77 | 1007.5 | ||||||
| 04 | 16:51 | S 18 G 25 | 10.00 | A Few Clouds | FEW040 | 79 | 63 | 58% | 81 | 29.79 | 1008.2 | ||||||
| 04 | 15:51 | S 16 G 29 | 10.00 | Mostly Cloudy | BKN041 | 80.1 | 63 | 56% | 81 | 29.82 | 1009.1 | ||||||
| 04 | 14:51 | S 18 G 28 | 10.00 | Mostly Cloudy | BKN041 | 79 | 62.1 | 56% | 80 | 29.85 | 1010.2 | ||||||
| 04 | 13:51 | S 21 G 30 | 10.00 | Partly Cloudy and Breezy | SCT039 | 80.1 | 62.1 | 54% | 81 | 29.87 | 1010.9 | ||||||
| 04 | 12:51 | S 15 G 29 | 10.00 | Partly Cloudy | SCT037 | 79 | 61 | 79 | 61 | 54% | 80 | 29.9 | 1012.0 | ||||
| 04 | 11:51 | S 18 G 28 | 10.00 | Fair | CLR | 77 | 60.1 | 56% | 79 | 29.93 | 1012.8 | ||||||
| 04 | 10:51 | S 21 G 29 | 10.00 | Fair and Breezy | CLR | 73.9 | 59 | 60% | 29.94 | 1013.1 | |||||||
| 04 | 09:51 | S 20 G 28 | 10.00 | Fair | CLR | 71.1 | 57 | 61% | 29.96 | 1013.8 | |||||||
| 04 | 08:51 | S 17 G 25 | 10.00 | Fair | CLR | 66 | 55 | 68% | 29.96 | 1014.0 | |||||||
| 04 | 07:51 | S 16 | 10.00 | Fair | CLR | 62.1 | 54 | 75% | 29.96 | 1013.9 | |||||||
| 04 | 06:51 | S 15 | 10.00 | Fair | CLR | 61 | 54 | 66.9 | 60.1 | 78% | 29.94 | 1013.3 | |||||
| 04 | 05:51 | S 14 | 10.00 | Fair | CLR | 61 | 54 | 78% | 29.95 | 1013.6 | |||||||
| 04 | 04:51 | S 15 | 10.00 | Fair | CLR | 61 | 54 | 78% | 29.96 | 1013.8 | |||||||
| 04 | 03:51 | S 14 | 10.00 | Fair | CLR | 63 | 54 | 73% | 29.96 | 1014.0 | |||||||
| 04 | 02:51 | S 14 | 10.00 | Fair | CLR | 64 | 54 | 70% | 29.97 | 1014.2 | |||||||
| 04 | 01:51 | S 15 | 10.00 | Light Rain | CLR | 64.9 | 53.1 | 66% | 29.99 | 1014.9 | |||||||
| 04 | 00:51 | S 15 G 25 | 10.00 | Fair | CLR | 66 | 53.1 | 75.9 | 66 | 63% | 30.01 | 1015.6 | |||||
| 03 | 23:51 | S 14 | 10.00 | Fair | CLR | 66.9 | 52 | 59% | 30.02 | 1015.9 | |||||||
| 03 | 22:51 | S 13 | 10.00 | Fair | CLR | 69.1 | 51.1 | 53% | 30.03 | 1016.2 | |||||||
| 03 | 21:51 | S 10 | 10.00 | Fair | CLR | 70 | 51.1 | 51% | 30.02 | 1016.0 | |||||||
| 03 | 20:51 | S 10 | 10.00 | Fair | CLR | 71.1 | 51.1 | 49% | 30.01 | 1015.7 | |||||||
| 03 | 19:51 | S 9 | 10.00 | Fair | CLR | 72 | 48.9 | 44% | 30.01 | 1015.7 | |||||||
| 03 | 18:51 | S 15 | 10.00 | Fair | CLR | 75.9 | 48.9 | 81 | 75.9 | 39% | 78 | 30.02 | 1016.2 | ||||
| 03 | 17:51 | S 15 | 10.00 | Fair | CLR | 78.1 | 48 | 35% | 78 | 30.04 | 1016.6 | ||||||
| 03 | 16:51 | S 15 | 10.00 | Fair | CLR | 79 | 48 | 34% | 79 | 30.05 | 1017.1 | ||||||
| 03 | 15:51 | S 14 | 10.00 | Fair | CLR | 81 | 48 | 32% | 80 | 30.07 | 1017.9 | ||||||
| 03 | 14:51 | S 14 | 10.00 | Fair | CLR | 81 | 48 | 32% | 80 | 30.1 | 1018.8 | ||||||
| 03 | 13:51 | S 12 | 10.00 | Fair | CLR | 80.1 | 48 | 33% | 79 | 30.13 | 1019.9 | ||||||
| 03 | 12:51 | S 12 G 21 | 10.00 | Fair | CLR | 80.1 | 52 | 80.1 | 51.1 | 38% | 80 | 30.16 | 1020.8 | ||||
| 03 | 11:51 | SW 10 G 20 | 10.00 | Fair | CLR | 77 | 51.1 | 40% | 78 | 30.19 | 1021.8 | ||||||
| 03 | 10:51 | SW 13 | 10.00 | Fair | CLR | 73.9 | 51.1 | 45% | 30.2 | 1022.2 | |||||||
| 03 | 09:51 | SW 7 | 10.00 | Fair | CLR | 69.1 | 55 | 61% | 30.2 | 1022.3 | |||||||
| 03 | 08:51 | SW 6 | 10.00 | Fair | CLR | 62.1 | 53.1 | 73% | 30.19 | 1022.1 | |||||||
| 03 | 07:51 | SW 6 | 10.00 | Fair | CLR | 55.9 | 52 | 87% | 30.18 | 1021.5 | |||||||
| 03 | 05:51 | SW 6 | 10.00 | Fair | CLR | 51.1 | 48 | 89% | 30.15 | 1020.4 | |||||||
| 03 | 04:51 | W 3 | 10.00 | Fair | CLR | 52 | 48 | 86% | 30.15 | 1020.4 | |||||||
| 03 | 03:51 | SW 9 | 10.00 | Fair | CLR | 54 | 50 | 87% | 30.14 | 1020.0 | |||||||
| 03 | 02:51 | S 10 | 10.00 | Fair | CLR | 55.9 | 51.1 | 84% | 30.14 | 1020.1 | |||||||
| 03 | 01:51 | SW 8 | 10.00 | Fair | CLR | 54 | 50 | 87% | 30.15 | 1020.5 | |||||||
| 03 | 00:51 | SW 8 | 10.00 | Fair | CLR | 53.1 | 48.9 | 73.9 | 52 | 86% | 30.15 | 1020.7 | |||||
| 02 | 23:51 | SW 7 | 10.00 | Fair | CLR | 54 | 50 | 87% | 30.14 | 1020.4 | |||||||
| 02 | 22:51 | SW 5 | 10.00 | Fair | CLR | 55 | 51.1 | 87% | 30.14 | 1020.3 | |||||||
| 02 | 21:51 | S 3 | 10.00 | Fair | CLR | 57 | 50 | 78% | 30.13 | 1019.9 | |||||||
| 02 | 20:51 | Calm | 10.00 | Fair | CLR | 57.9 | 53.1 | 84% | 30.11 | 1019.3 | |||||||
| 02 | 19:51 | Calm | 10.00 | Fair | CLR | 70 | 48 | 46% | 30.11 | 1019.1 | |||||||
| 02 | 18:51 | N 6 | 10.00 | Fair | CLR | 73.9 | 46.9 | 78.1 | 72 | 38% | 30.1 | 1019.0 | |||||
| 02 | 17:51 | N 6 | 10.00 | Fair | CLR | 77 | 44.1 | 31% | 78 | 30.1 | 1018.9 | ||||||
| 02 | 16:51 | NE 6 | 10.00 | Fair | CLR | 77 | 45 | 32% | 78 | 30.11 | 1019.1 | ||||||
| 02 | 15:51 | N 7 | 10.00 | Fair | CLR | 77 | 48 | 36% | 78 | 30.13 | 1019.8 | ||||||
| 02 | 14:51 | N 7 | 10.00 | Fair | CLR | 75.9 | 46.9 | 36% | 78 | 30.14 | 1020.2 | ||||||
| 02 | 13:51 | NE 7 | 10.00 | Fair | CLR | 73.9 | 48.9 | 41% | 30.16 | 1020.7 | |||||||
| 02 | 12:51 | N 9 | 10.00 | Fair | CLR | 73 | 48 | 73 | 48.9 | 41% | 30.18 | 1021.7 | |||||
| 02 | 11:51 | NW 6 | 10.00 | Fair | CLR | 71.1 | 48.9 | 46% | 30.2 | 1022.4 | |||||||
| 02 | 10:51 | N 6 | 10.00 | Fair | CLR | 69.1 | 51.1 | 53% | 30.2 | 1022.3 | |||||||
| 02 | 09:51 | NW 7 | 10.00 | Fair | CLR | 64.9 | 48.9 | 56% | 30.2 | 1022.1 | |||||||
| 02 | 08:51 | NW 6 | 10.00 | Fair | CLR | 59 | 48.9 | 69% | 30.19 | 1021.9 | |||||||
| 02 | 07:51 | NW 6 | 10.00 | Fair | CLR | 53.1 | 46.9 | 80% | 30.17 | 1021.2 | |||||||
| 02 | 06:51 | NW 7 | 10.00 | Fair | CLR | 48 | 45 | 53.1 | 46 | 89% | 45 | 30.14 | 1020.2 | ||||
| 02 | 05:51 | W 3 | 10.00 | Fair | CLR | 46 | 44.1 | 93% | 30.11 | 1019.4 | |||||||
| 02 | 04:51 | NW 3 | 10.00 | Fair | CLR | 50 | 46.9 | 89% | 30.1 | 1019.0 | |||||||
| 02 | 03:51 | NW 5 | 10.00 | Fair | CLR | 50 | 46.9 | 89% | 49 | 30.09 | 1018.7 | ||||||
| 02 | 02:51 | N 6 | 10.00 | Fair | CLR | 51.1 | 48 | 89% | 30.09 | 1018.7 | |||||||
| 02 | 01:51 | NW 6 | 10.00 | Fair | CLR | 51.1 | 48.9 | 92% | 30.1 | 1018.8 | |||||||
| 02 | 00:51 | N 6 | 10.00 | Partly Cloudy | SCT100 | 53.1 | 48.9 | 59 | 53.1 | 86% | 30.1 | 1018.9 | |||||
| 01 | 23:51 | N 6 | 10.00 | Overcast | OVC110 | 54 | 50 | 87% | 30.09 | 1018.8 | |||||||
| 01 | 22:51 | N 5 | 10.00 | A Few Clouds | FEW110 | 54 | 50 | 87% | 30.08 | 1018.3 | |||||||
| 01 | 21:51 | N 7 | 10.00 | Overcast | OVC100 | 57 | 50 | 78% | 30.07 | 1018.0 | |||||||
| 01 | 20:51 | N 5 | 10.00 | Overcast | OVC100 | 57 | 52 | 83% | 30.04 | 1016.9 | |||||||
| 01 | 19:51 | NE 7 | 10.00 | Overcast | OVC100 | 57.9 | 48.9 | 72% | 30.01 | 1015.8 | |||||||
| Date | Time (cdt) | Wind (mph) | Vis. (mi.) | Weather | Sky Cond. | Air | Dwpt | Max. | Min. | Relative Humidity | Wind Chill (°F) | Heat Index (°F) | altimeter (in) | sea level (mb) | 1 hr | 3 hr | 6 hr |
| 6 hour | |||||||||||||||||
| Temperature (ºF) | Pressure | Precipitation (in) | |||||||||||||||